GFSNE_sfc_rhum_075.txt.gz
RH
76 72 66 64 66 64 65 73 82 87 76 69 74 68 62 57 67 60 60 80 82 84 82 82 80 77 76 74 73 72 71 70 70 70 70 69 69 67
70 71 70 66 66 70 72 79 77 86 90 65 70 71 61 51 65 64 59 73 79 79 80 80 81 80 79 79 77 76 74 73 72 71 71 71 70 69
67 65 66 64 70 72 84 84 87 91 98 94 91 87 76 67 60 62 64 60 60 79 83 81 81 80 81 81 80 77 74 71 70 66 62 61 60 59
59 62 63 64 73 78 90 95 94 97 97 96 96 94 87 73 70 73 57 49 51 74 84 77 75 75 74 77 76 79 80 74 70 69 64 61 61 60
59 62 62 67 81 94 96 97 95 97 97 97 95 90 90 82 77 70 71 69 52 74 77 74 73 71 69 73 76 75 74 75 73 73 73 72 68 66
62 66 66 82 94 95 98 98 97 98 98 97 95 91 86 80 78 72 70 65 57 34 38 39 53 62 67 66 69 71 73 72 72 73 74 70 75 74
79 88 90 92 98 95 95 96 97 96 97 95 98 93 90 85 81 69 67 60 53 39 32 33 33 37 41 64 62 70 76 74 70 65 66 69 73 78
86 79 86 99 99 100 100 100 95 96 97 96 93 93 88 78 73 65 55 54 48 35 39 38 36 38 37 37 53 62 59 64 68 66 69 71 74 78
85 95 99 99 100 99 98 96 97 96 96 92 93 93 89 72 62 60 60 58 45 38 38 48 45 46 40 27 58 63 64 66 65 67 71 73 77 80
98 98 99 99 98 96 92 90 91 92 90 74 86 86 85 59 49 50 51 44 44 39 40 55 47 50 44 38 56 60 63 69 73 72 72 76 80 82
97 96 95 95 95 91 91 97 98 98 96 94 87 76 70 65 59 43 53 51 66 41 41 46 45 49 49 48 42 56 61 63 65 71 73 80 85 82
98 98 97 95 99 92 91 91 92 80 64 64 59 49 47 56 53 44 38 49 48 49 42 46 42 42 48 46 50 52 53 60 64 64 70 81 85 91
96 97 97 95 93 92 92 95 95 87 86 71 66 52 42 42 42 45 39 46 56 54 46 53 53 52 57 54 47 51 54 60 66 67 69 76 68 76
94 94 96 94 94 95 95 94 92 93 85 68 58 47 45 43 41 40 40 41 41 42 42 51 62 55 59 61 56 46 51 56 62 68 73 79 82 81
91 93 93 92 90 91 91 93 92 89 81 75 64 52 47 43 38 42 45 42 43 46 37 46 57 54 58 64 61 57 58 54 60 70 76 78 87 71
94 92 94 95 89 89 88 85 76 74 71 74 73 59 53 56 55 51 59 61 66 62 50 55 56 61 66 59 59 64 60 69 62 68 74 92 80 79
95 95 93 87 85 84 84 83 82 72 74 72 73 67 60 60 64 62 63 65 75 65 56 49 48 52 52 53 66 58 60 60 60 72 72 87 83 84
93 93 95 95 93 90 88 79 72 67 61 62 68 68 68 70 69 66 64 69 74 65 61 50 54 55 52 49 52 60 58 68 76 82 75 91 85 85
92 94 95 95 87 82 78 70 72 70 64 67 71 72 73 72 74 71 68 67 68 62 53 53 54 58 64 72 51 54 71 70 73 78 86 97 85 76
81 82 82 78 69 67 66 68 70 75 74 73 73 75 77 74 74 68 65 71 68 61 55 43 46 52 72 88 82 68 53 74 78 86 86 96 80 79
80 79 85 77 76 73 80 80 78 79 76 80 77 75 81 74 73 68 69 73 76 60 62 55 47 57 51 56 77 73 63 60 66 81 91 96 96 79
88 80 75 75 79 75 77 77 74 71 70 68 73 74 75 74 76 73 73 73 67 67 63 53 49 49 58 63 68 71 63 64 60 67 91 97 95 94
84 76 76 74 68 67 62 70 68 74 68 68 69 70 77 77 69 73 73 71 68 67 62 66 62 63 62 58 68 72 72 74 67 89 88 98 83 86

GFSNE_sfc_rhum_078.txt.gz
RH
80 85 82 79 80 75 90 92 91 96 95 92 91 86 86 84 85 83 78 86 85 87 85 83 82 83 82 80 76 72 69 69 69 69 70 70 70 70
76 81 82 78 77 84 92 92 92 89 91 87 92 89 84 77 83 82 76 86 85 84 84 85 83 82 81 81 81 78 76 74 72 71 69 69 68 66
76 77 74 75 79 86 92 90 90 94 94 86 91 92 89 89 83 79 82 76 79 84 84 85 85 84 82 81 81 80 76 73 70 68 64 61 59 56
72 76 75 75 84 85 88 88 92 93 93 94 96 97 95 91 86 82 75 66 69 79 83 86 86 83 80 79 77 78 76 74 70 63 60 56 57 58
68 72 74 76 81 82 85 89 93 96 97 95 96 96 95 93 90 86 83 83 65 84 87 86 84 83 81 72 69 73 75 75 76 76 71 69 68 64
70 71 70 72 77 79 88 95 96 98 98 98 96 97 95 97 92 94 92 86 80 57 68 69 75 77 71 71 72 71 72 72 74 76 77 79 79 72
70 70 71 72 81 82 86 96 97 98 97 97 97 99 99 99 97 92 92 92 88 79 58 49 57 57 62 74 66 72 74 77 79 77 75 74 74 74
72 73 88 97 99 100 100 98 95 94 93 98 97 98 95 94 94 96 97 96 87 67 63 57 52 58 53 54 58 68 71 70 73 73 70 70 73 76
84 84 94 96 100 95 99 98 98 97 100 98 98 99 98 97 94 94 95 96 94 77 63 68 68 67 57 37 59 65 56 61 65 70 72 73 74 78
90 89 88 98 99 99 97 96 98 98 98 94 96 99 97 96 95 97 98 96 86 70 60 86 68 71 66 60 62 67 67 67 62 64 68 73 76 79
99 99 99 99 98 94 94 97 97 98 98 97 97 96 95 96 96 96 96 92 96 73 63 68 66 69 69 70 59 55 66 64 67 70 69 70 74 80
98 98 97 97 97 95 94 93 95 92 86 83 85 88 83 70 70 82 74 88 89 79 65 80 66 64 81 66 70 70 71 68 66 62 61 72 76 95
97 98 98 97 96 94 90 86 86 91 96 92 92 93 95 91 87 82 77 86 89 85 68 79 84 79 83 76 67 70 67 62 69 78 71 70 73 81
96 96 98 95 94 94 93 93 93 93 92 93 93 91 88 80 68 64 63 59 59 59 58 65 89 80 78 75 70 63 66 70 73 75 78 74 77 83
95 96 95 93 92 93 94 95 97 96 96 95 92 90 72 61 57 63 63 57 61 66 51 69 79 68 72 76 73 70 71 64 68 72 80 90 91 94
95 95 95 94 93 96 94 91 90 92 94 96 96 96 83 84 81 77 81 80 88 84 69 71 73 77 77 70 68 73 69 79 68 70 73 76 78 86
96 96 96 96 95 95 96 96 96 96 95 96 95 89 81 78 83 88 88 89 94 82 73 68 68 71 69 66 72 64 66 66 65 73 81 89 84 84
95 96 97 97 96 96 96 96 95 93 88 81 85 82 85 88 86 82 86 93 90 83 80 73 73 71 66 60 54 64 66 78 82 74 75 84 83 81
95 96 96 96 96 94 94 94 92 84 80 84 87 89 89 83 86 84 82 82 84 77 70 65 66 68 74 81 71 56 71 67 69 72 76 84 88 83
94 94 95 95 94 93 92 91 85 88 87 85 93 94 95 93 90 84 82 91 85 77 69 60 64 68 89 89 84 73 53 72 76 82 84 82 76 77
94 94 95 95 95 90 92 90 93 92 95 95 93 91 95 95 94 94 93 89 88 76 76 70 64 67 60 66 80 75 69 55 57 69 86 87 83 84
94 93 93 90 88 85 90 91 89 89 88 88 94 95 95 94 94 93 94 94 86 84 76 66 59 60 68 73 76 76 73 69 60 59 67 72 93 95
94 92 86 86 83 84 82 88 89 93 92 92 94 93 95 95 93 93 94 92 84 83 77 76 73 66 66 64 70 74 76 73 69 72 74 69 93 96

GFSNE_sfc_rhum_084.txt.gz
RH
89 90 85 87 91 87 90 88 88 90 77 82 91 90 84 86 82 81 76 80 88 88 88 90 91 91 90 90 88 86 84 83 81 78 75 72 70 68
86 88 87 82 88 88 89 89 93 84 88 80 81 89 90 85 85 85 80 85 89 88 87 86 86 88 90 92 91 88 84 82 81 76 72 71 71 70
82 84 82 80 82 82 88 87 88 88 89 79 79 84 94 90 89 92 86 90 88 94 93 92 94 95 96 94 93 91 87 84 82 78 75 73 71 69
83 85 86 80 83 80 84 86 86 86 87 87 82 94 95 90 88 90 90 91 90 91 95 96 96 96 94 96 96 92 87 86 85 82 76 72 67 59
77 80 80 81 82 83 82 82 84 85 90 89 84 79 85 98 98 96 95 92 88 87 96 96 95 96 97 96 95 92 90 88 83 78 76 74 63 57
76 75 75 79 80 82 86 89 86 89 89 92 90 87 90 97 94 96 99 97 94 87 92 94 96 96 97 96 95 92 88 81 76 76 77 78 77 74
78 76 77 76 81 79 79 83 84 86 88 90 91 90 97 100 98 95 97 96 99 98 98 98 98 97 97 97 93 83 81 81 78 76 79 80 79 78
82 77 77 86 85 90 89 85 80 88 87 89 87 89 89 96 93 95 98 99 99 98 98 99 96 98 95 95 90 91 91 87 83 85 83 82 83 79
85 84 84 81 88 82 96 95 100 100 99 83 87 86 87 88 93 99 98 98 99 99 96 99 98 98 92 82 90 89 88 80 78 81 80 80 79 81
86 86 87 85 85 87 96 99 99 99 99 99 99 96 98 98 98 97 98 98 98 98 97 98 100 100 99 93 83 81 77 74 71 70 72 72 75 76
85 85 85 86 89 97 99 99 100 100 98 97 98 98 97 97 95 94 99 95 99 98 97 99 99 99 99 98 87 69 64 68 64 61 61 64 72 77
85 100 100 96 96 100 93 98 98 98 98 98 97 96 95 96 96 97 96 96 97 96 89 95 87 87 85 88 81 79 73 59 62 58 58 59 60 74
99 100 100 99 99 98 98 98 96 96 98 95 94 94 92 87 85 86 92 96 96 95 71 84 82 78 78 74 70 69 75 74 71 71 65 64 64 68
99 98 99 98 96 94 94 96 96 94 93 94 93 94 94 95 96 96 94 87 85 84 77 78 88 75 76 80 72 68 70 71 79 80 80 75 71 64
96 98 96 94 94 95 95 95 94 93 94 95 96 96 96 96 97 96 96 94 94 91 77 77 78 73 79 83 79 77 76 69 73 81 86 81 82 82
93 92 93 94 94 95 94 94 96 97 96 96 96 96 96 95 94 95 94 91 89 91 76 76 75 80 81 72 73 80 74 83 77 87 89 84 90 85
95 95 94 94 95 95 95 95 95 95 95 96 95 96 94 93 94 92 85 81 88 79 76 66 57 60 61 57 80 67 78 80 78 79 71 75 74 81
94 96 96 95 95 95 95 95 95 94 94 94 95 94 93 92 86 81 81 84 86 79 76 67 74 75 65 58 61 70 70 72 66 63 66 80 79 80
93 96 96 96 96 95 95 94 95 95 95 94 94 94 87 83 86 86 84 82 82 72 67 68 74 78 86 92 67 51 78 75 77 81 80 79 85 79
92 93 95 95 95 94 94 93 94 94 93 88 90 91 91 88 88 82 82 91 84 76 73 68 72 75 92 98 93 80 55 76 78 80 79 76 72 65
92 92 94 93 94 94 95 93 91 92 93 93 92 91 94 89 92 92 92 93 92 80 80 78 73 74 66 75 92 85 73 58 65 75 76 89 89 84
94 92 93 93 94 92 94 94 94 94 94 91 95 95 97 96 96 95 97 98 93 93 86 74 62 67 75 76 83 85 80 74 66 67 64 69 90 94
95 93 94 95 93 93 91 94 94 97 96 97 97 96 98 98 97 97 98 96 94 93 88 86 81 78 77 74 82 86 84 80 75 77 74 63 65 67

GFSNE_sfc_rhum_090.txt.gz
RH
85 88 81 81 89 81 86 84 77 85 80 81 84 84 76 74 75 74 77 82 92 92 91 90 90 89 90 89 89 88 86 85 84 86 87 89 87 88
87 90 90 84 85 88 91 89 81 70 75 73 77 80 85 81 80 78 77 83 87 90 92 93 92 90 90 90 91 91 90 89 87 86 87 91 91 91
83 86 86 81 81 83 86 83 88 86 79 70 82 84 89 83 81 84 81 84 80 91 90 88 89 91 91 92 92 92 92 92 91 91 90 93 92 90
88 87 85 79 83 79 81 81 79 79 82 83 77 79 89 78 77 78 83 78 77 84 92 91 90 89 90 90 91 92 92 93 93 93 90 92 91 92
86 86 84 84 86 84 84 85 85 83 84 84 77 75 76 91 88 86 82 82 85 86 91 93 93 93 92 93 93 92 93 94 96 96 98 97 95 92
89 87 84 86 87 85 88 88 86 86 87 88 86 82 81 83 90 87 87 93 86 83 94 94 92 96 97 97 96 97 98 98 99 98 97 97 94 90
87 88 87 85 89 86 82 85 88 90 88 86 88 87 87 88 93 86 93 87 85 92 88 93 96 96 95 98 97 99 99 99 98 97 94 90 89 87
85 83 82 92 89 92 92 88 74 86 89 87 85 85 80 78 79 84 89 92 93 92 95 94 99 98 96 98 98 99 99 96 92 89 87 87 88 89
86 85 86 84 91 86 93 94 94 92 90 77 84 84 82 77 78 84 87 90 89 86 99 99 99 99 98 97 99 97 95 94 92 94 94 94 92 91
85 86 87 86 85 88 89 89 92 89 89 87 84 80 79 79 83 84 85 88 99 98 96 100 99 99 99 98 96 96 96 96 95 94 95 96 96 90
87 85 86 88 90 96 93 93 93 98 98 98 98 96 95 96 98 99 99 100 100 98 96 98 99 98 98 98 99 99 100 100 99 99 98 97 91 82
94 92 100 98 100 100 96 94 97 96 99 98 97 95 94 96 95 97 99 99 100 98 97 96 96 97 96 97 96 96 96 96 96 96 96 96 96 93
98 97 97 98 96 97 99 100 99 98 97 96 95 93 93 93 93 92 94 95 95 96 96 96 97 97 97 96 95 95 94 95 95 94 93 94 90 77
96 96 97 94 92 96 94 96 97 94 94 94 94 95 95 94 95 94 95 94 95 96 97 97 96 95 95 94 94 94 94 95 94 94 93 93 87 73
93 92 89 88 87 90 92 94 94 94 95 95 96 96 97 97 97 96 96 95 95 95 95 95 95 95 94 94 93 92 91 91 89 87 80 72 71 62
91 93 93 91 92 93 93 93 93 94 95 95 96 96 96 95 95 95 95 94 93 94 94 92 90 90 91 89 85 85 80 82 68 65 61 66 63 66
86 87 89 90 91 93 94 93 94 93 93 95 94 95 95 94 95 94 93 92 92 87 79 68 60 64 63 69 80 62 62 57 55 65 61 68 65 71
86 91 93 93 93 93 93 94 94 92 92 90 92 92 93 92 90 85 84 87 86 79 74 66 72 65 55 56 58 65 59 58 59 56 56 72 72 73
91 93 94 94 94 93 93 93 94 93 91 90 91 91 87 84 83 82 82 78 80 71 66 68 70 73 74 78 60 51 69 65 69 74 70 73 85 76
91 93 94 94 92 90 90 90 89 89 88 86 89 90 90 84 84 81 81 86 76 69 66 60 65 68 80 88 86 73 61 80 78 84 83 76 73 70
91 92 93 92 93 91 94 93 93 93 93 93 92 90 94 86 86 85 84 83 79 70 72 70 67 71 63 70 87 82 68 63 66 76 78 88 86 77
94 94 94 93 94 92 95 94 93 93 93 91 95 95 94 89 89 87 88 87 82 82 73 66 62 62 66 67 77 86 79 74 67 64 66 72 88 90
97 95 96 95 93 93 88 93 92 97 95 95 94 94 96 94 90 90 90 87 82 82 79 77 71 67 69 66 76 79 81 78 72 75 73 66 66 72

GFSNE_sfc_rhum_093.txt.gz
RH
80 81 73 70 69 61 72 66 65 73 59 62 67 74 74 73 73 74 77 78 91 92 92 91 90 89 89 90 89 88 87 86 85 84 85 86 85 85
80 82 74 69 78 77 81 86 82 72 69 51 54 67 81 78 77 78 75 80 86 91 92 91 91 90 90 90 90 90 89 89 88 87 86 87 88 88
82 84 82 79 82 88 92 89 87 86 88 72 62 58 71 72 66 74 72 73 70 88 89 90 91 92 92 92 92 91 91 91 90 90 89 89 88 87
74 80 81 77 85 83 85 85 76 68 80 83 70 60 71 66 76 75 74 71 70 75 87 89 89 89 90 90 90 91 92 92 92 92 92 91 90 90
80 78 72 71 74 69 70 70 76 74 77 81 69 59 56 63 66 77 74 74 64 71 84 89 89 88 88 89 90 91 91 92 93 94 94 94 94 94
76 73 71 73 73 73 73 73 71 74 76 82 79 70 64 59 66 71 70 67 68 59 70 80 81 90 94 91 93 93 92 92 93 94 95 97 98 97
82 80 80 78 82 78 66 72 76 80 80 82 84 77 74 74 77 69 77 72 68 66 68 70 73 78 81 97 92 97 96 97 96 97 98 98 99 98
78 77 76 91 88 94 94 90 75 78 84 82 80 81 78 74 72 76 79 83 89 75 79 78 73 78 78 80 94 99 99 99 99 99 98 96 95 95
84 82 80 77 88 76 94 97 96 93 90 76 85 86 84 80 79 81 83 86 87 78 88 91 98 99 96 94 99 99 99 98 96 94 94 94 94 94
86 86 84 82 82 87 87 88 89 87 91 90 90 85 86 91 95 92 88 86 85 96 95 98 99 99 97 97 97 97 97 97 97 97 97 97 98 98
92 92 95 96 98 98 98 95 94 94 98 98 97 97 98 95 95 97 98 100 99 99 96 98 99 97 95 96 98 92 91 91 92 93 94 95 98 98
94 92 98 96 96 97 99 99 99 99 99 96 95 94 94 95 94 97 99 100 100 98 97 96 96 97 95 96 96 96 96 96 96 96 95 95 96 92
94 94 93 93 92 93 95 98 99 97 97 96 95 95 93 93 92 93 95 94 96 96 97 98 97 98 96 95 92 94 93 93 92 92 94 94 93 90
94 93 92 87 88 88 90 90 90 92 92 93 91 94 94 95 95 94 94 94 94 96 97 97 96 95 94 94 91 90 91 91 90 90 89 89 88 85
90 87 85 83 83 87 85 86 87 90 91 93 95 96 94 95 94 90 90 90 92 94 94 93 92 93 92 93 90 87 83 85 84 80 70 66 66 55
83 86 83 83 85 85 88 88 89 88 88 90 92 91 88 88 88 84 85 85 85 85 79 84 84 86 87 84 82 80 67 74 49 51 54 61 60 62
84 85 87 87 88 87 88 88 87 86 89 88 88 87 86 83 84 79 74 71 74 64 60 57 56 58 65 70 74 59 52 46 44 58 52 57 55 60
84 89 92 91 90 87 87 86 84 83 82 80 82 78 75 73 69 65 64 66 66 60 58 50 55 52 51 52 55 53 46 50 49 50 50 63 62 61
86 88 91 90 87 82 82 80 82 78 73 69 70 70 67 65 66 65 65 62 61 51 45 48 52 58 60 66 50 47 61 55 60 64 58 62 71 62
80 84 86 84 77 73 70 70 71 72 71 66 73 75 75 70 70 64 64 69 60 52 50 44 49 56 68 79 78 63 58 72 69 71 67 62 58 62
77 78 80 76 76 74 81 80 81 82 81 81 78 77 80 71 72 69 68 71 64 54 54 51 49 60 49 56 74 69 59 53 61 71 69 75 71 63
79 76 75 76 78 76 82 81 80 80 78 76 83 82 81 74 74 72 73 70 62 64 53 48 45 46 51 53 62 71 61 62 56 56 61 69 82 86
84 77 81 82 78 79 74 79 78 83 78 78 78 77 82 78 71 71 71 65 63 64 60 58 51 49 53 52 60 66 69 66 60 61 63 59 68 80